Time,TemperatureF,DewpointF,PressureIn,WindDirection,WindDirectionDegrees,WindSpeedMPH,WindSpeedGustMPH,Humidity,HourlyPrecipIn,Conditions,Clouds,dailyrainin,SolarRadiationWatts/m^2,SoftwareType,DateUTC
2013-02-25 00:02:00,42.0,30.0,-100.00,ESE,109,15.0,25.0,61,0.00,,,0.00,0.000000,,2013-02-25 06:02:00,
2013-02-25 00:32:00,43.0,30.0,-100.00,ESE,108,13.0,23.0,60,0.00,,,0.00,0.000000,,2013-02-25 06:32:00,
2013-02-25 00:42:00,43.0,30.0,-100.00,ESE,108,13.0,23.0,60,0.00,,,0.00,0.000000,,2013-02-25 06:42:00,
2013-02-25 00:52:00,43.0,30.0,-100.00,ESE,108,13.0,23.0,60,0.00,,,0.00,0.000000,,2013-02-25 06:52:00,
2013-02-25 01:01:00,43.0,30.0,-100.00,ESE,108,13.0,23.0,60,0.00,,,0.00,0.000000,,2013-02-25 07:01:00,
2013-02-25 01:32:00,44.0,29.0,-100.00,ESE,106,15.0,28.0,56,0.00,,,0.00,0.000000,,2013-02-25 07:32:00,
2013-02-25 01:42:00,44.0,29.0,-100.00,ESE,106,15.0,28.0,56,0.00,,,0.00,0.000000,,2013-02-25 07:42:00,
2013-02-25 01:52:00,44.0,29.0,-100.00,ESE,106,15.0,28.0,56,0.00,,,0.00,0.000000,,2013-02-25 07:52:00,
2013-02-25 02:32:00,44.0,29.0,-100.00,ESE,108,13.0,27.0,56,-99.99,,,0.00,0.000000,,2013-02-25 08:32:00,
2013-02-25 03:32:00,45.0,29.0,-100.00,ESE,109,15.0,24.0,53,-99.99,,,0.00,0.000000,,2013-02-25 09:32:00,
2013-02-25 04:32:00,42.0,27.0,-100.00,East,79,11.0,25.0,55,-99.99,,,0.00,0.000000,,2013-02-25 10:32:00,
2013-02-25 04:42:00,42.0,27.0,-100.00,East,79,11.0,25.0,55,-99.99,,,0.00,0.000000,,2013-02-25 10:42:00,
2013-02-25 04:52:00,42.0,27.0,-100.00,East,79,11.0,25.0,55,-99.99,,,0.00,0.000000,,2013-02-25 10:52:00,
2013-02-25 05:01:00,42.0,27.0,-100.00,East,79,11.0,25.0,55,-99.99,,,0.00,0.000000,,2013-02-25 11:01:00,
2013-02-25 05:32:00,42.0,28.0,-100.00,East,85,12.0,18.0,58,0.00,,,0.00,0.000000,,2013-02-25 11:32:00,
2013-02-25 05:42:00,42.0,28.0,-100.00,East,85,12.0,18.0,58,0.00,,,0.00,0.000000,,2013-02-25 11:42:00,
2013-02-25 05:52:00,42.0,28.0,-100.00,East,85,12.0,18.0,58,0.00,,,0.00,0.000000,,2013-02-25 11:52:00,
2013-02-25 06:02:00,42.0,28.0,-100.00,East,85,12.0,18.0,58,0.00,,,0.00,0.000000,,2013-02-25 12:02:00,
2013-02-25 06:32:00,41.0,27.0,-100.00,ENE,73,13.0,21.0,58,0.00,,,0.00,0.000000,,2013-02-25 12:32:00,
2013-02-25 06:42:00,41.0,27.0,-100.00,ENE,73,13.0,21.0,58,0.00,,,0.00,0.000000,,2013-02-25 12:42:00,
2013-02-25 06:55:00,41.0,27.0,-100.00,ENE,73,13.0,21.0,58,0.00,,,0.00,0.000000,,2013-02-25 12:55:00,
2013-02-25 07:02:00,41.0,27.0,-100.00,ENE,73,13.0,21.0,58,0.00,,,0.00,0.000000,,2013-02-25 13:02:00,
2013-02-25 07:32:00,42.0,29.0,-100.00,East,86,13.0,22.0,59,0.00,,,0.00,3.000000,,2013-02-25 13:32:00,
2013-02-25 07:42:00,42.0,29.0,-100.00,East,86,13.0,22.0,59,0.00,,,0.00,3.000000,,2013-02-25 13:42:00,
2013-02-25 07:52:00,42.0,29.0,-100.00,East,86,13.0,22.0,59,0.00,,,0.00,3.000000,,2013-02-25 13:52:00,
2013-02-25 08:03:00,42.0,29.0,-100.00,East,86,13.0,22.0,59,0.00,,,0.00,3.000000,,2013-02-25 14:03:00,
2013-02-25 08:32:00,44.0,28.0,-100.00,East,90,17.0,24.0,52,0.00,,,-99.99,52.000000,,2013-02-25 14:32:00,
2013-02-25 09:02:00,44.0,28.0,-100.00,East,90,17.0,24.0,52,0.00,,,-99.99,52.000000,,2013-02-25 15:02:00,
2013-02-25 09:32:00,47.0,31.0,-100.00,East,95,18.0,29.0,53,0.00,,,0.00,170.000000,,2013-02-25 15:32:00,
2013-02-25 10:32:00,47.0,29.0,-100.00,ESE,102,19.0,29.0,49,0.00,,,0.00,185.000000,,2013-02-25 16:32:00,
2013-02-25 10:42:00,47.0,29.0,-100.00,ESE,102,19.0,29.0,49,0.00,,,0.00,185.000000,,2013-02-25 16:42:00,
2013-02-25 10:52:00,47.0,29.0,-100.00,ESE,102,19.0,29.0,49,0.00,,,0.00,185.000000,,2013-02-25 16:52:00,
2013-02-25 11:01:00,47.0,29.0,-100.00,ESE,102,19.0,29.0,49,0.00,,,0.00,185.000000,,2013-02-25 17:01:00,
2013-02-25 11:32:00,49.0,30.0,-100.00,ESE,104,19.0,36.0,47,0.00,,,0.00,233.000000,,2013-02-25 17:32:00,
2013-02-25 11:42:00,49.0,30.0,-100.00,ESE,104,19.0,36.0,47,0.00,,,0.00,233.000000,,2013-02-25 17:42:00,
2013-02-25 11:52:00,49.0,30.0,-100.00,ESE,104,19.0,36.0,47,0.00,,,0.00,233.000000,,2013-02-25 17:52:00,
2013-02-25 12:01:00,49.0,30.0,-100.00,ESE,104,19.0,36.0,47,0.00,,,0.00,233.000000,,2013-02-25 18:01:00,
2013-02-25 12:33:00,48.0,34.0,-100.00,SE,131,19.0,33.0,59,0.00,,,0.00,272.000000,,2013-02-25 18:33:00,
2013-02-25 12:42:00,48.0,34.0,-100.00,SE,131,19.0,33.0,59,0.00,,,0.00,272.000000,,2013-02-25 18:42:00,
2013-02-25 12:52:00,48.0,34.0,-100.00,SE,131,19.0,33.0,59,0.00,,,0.00,272.000000,,2013-02-25 18:52:00,
2013-02-25 13:01:00,48.0,34.0,-100.00,SE,131,19.0,33.0,59,0.00,,,0.00,272.000000,,2013-02-25 19:01:00,
2013-02-25 13:32:00,47.0,39.0,-100.00,East,98,18.0,35.0,73,0.00,,,0.00,40.000000,,2013-02-25 19:32:00,
2013-02-25 13:42:00,47.0,39.0,-100.00,East,98,18.0,35.0,73,0.00,,,0.00,40.000000,,2013-02-25 19:42:00,
2013-02-25 13:52:00,47.0,39.0,-100.00,East,98,18.0,35.0,73,0.00,,,0.00,40.000000,,2013-02-25 19:52:00,
2013-02-25 14:01:00,47.0,39.0,-100.00,East,98,18.0,35.0,73,0.00,,,0.00,40.000000,,2013-02-25 20:01:00,
2013-02-25 14:32:00,43.0,40.0,-100.00,ENE,58,14.0,37.0,90,0.22,,,0.22,7.000000,,2013-02-25 20:32:00,
2013-02-25 14:42:00,43.0,40.0,-100.00,ENE,58,14.0,37.0,90,0.22,,,0.22,7.000000,,2013-02-25 20:42:00,
2013-02-25 14:52:00,43.0,40.0,-100.00,ENE,58,14.0,37.0,90,0.22,,,0.22,7.000000,,2013-02-25 20:52:00,
2013-02-25 15:01:00,43.0,40.0,-100.00,ENE,58,14.0,37.0,90,0.22,,,0.22,7.000000,,2013-02-25 21:01:00,
2013-02-25 15:32:00,40.0,40.0,-100.00,East,94,7.0,28.0,100,0.42,,,0.64,59.000000,,2013-02-25 21:32:00,
2013-02-25 15:42:00,40.0,40.0,-100.00,East,94,7.0,28.0,100,0.42,,,0.64,59.000000,,2013-02-25 21:42:00,
2013-02-25 15:52:00,40.0,40.0,-100.00,East,94,7.0,28.0,100,0.42,,,0.64,59.000000,,2013-02-25 21:52:00,
2013-02-25 16:01:00,40.0,40.0,-100.00,East,94,7.0,28.0,100,0.42,,,0.64,59.000000,,2013-02-25 22:01:00,
2013-02-25 16:32:00,42.0,42.0,-100.00,ENE,64,10.0,17.0,100,0.00,,,0.64,81.000000,,2013-02-25 22:32:00,
2013-02-25 16:42:00,42.0,42.0,-100.00,ENE,64,10.0,17.0,100,0.00,,,0.64,81.000000,,2013-02-25 22:42:00,
2013-02-25 16:52:00,42.0,42.0,-100.00,ENE,64,10.0,17.0,100,0.00,,,0.64,81.000000,,2013-02-25 22:52:00,
2013-02-25 17:01:00,42.0,42.0,-100.00,ENE,64,10.0,17.0,100,0.00,,,0.64,81.000000,,2013-02-25 23:01:00,
2013-02-25 17:32:00,41.0,41.0,-100.00,NE,55,10.0,17.0,100,0.01,,,-99.99,16.000000,,2013-02-25 23:32:00,
2013-02-25 17:42:00,41.0,41.0,-100.00,NE,55,10.0,17.0,100,0.01,,,-99.99,16.000000,,2013-02-25 23:42:00,
2013-02-25 17:52:00,41.0,41.0,-100.00,NE,55,10.0,17.0,100,0.01,,,-99.99,16.000000,,2013-02-25 23:52:00,
2013-02-25 18:01:00,41.0,41.0,-100.00,NE,55,10.0,17.0,100,0.01,,,-99.99,16.000000,,2013-02-26 00:01:00,
2013-02-25 18:32:00,40.0,40.0,-100.00,NE,56,14.0,26.0,100,0.05,,,0.70,12.000000,,2013-02-26 00:32:00,
2013-02-25 18:42:00,40.0,40.0,-100.00,NE,56,14.0,26.0,100,0.05,,,0.70,12.000000,,2013-02-26 00:42:00,
2013-02-25 18:52:00,40.0,40.0,-100.00,NE,56,14.0,26.0,100,0.05,,,0.70,12.000000,,2013-02-26 00:52:00,
2013-02-25 19:02:00,40.0,40.0,-100.00,NE,56,14.0,26.0,100,0.05,,,0.70,12.000000,,2013-02-26 01:02:00,
2013-02-25 19:32:00,39.0,39.0,-100.00,NE,51,15.0,26.0,100,0.00,,,0.70,0.000000,,2013-02-26 01:32:00,
2013-02-25 19:42:00,39.0,39.0,-100.00,NE,51,15.0,26.0,100,0.00,,,0.70,0.000000,,2013-02-26 01:42:00,
2013-02-25 19:52:00,39.0,39.0,-100.00,NE,51,15.0,26.0,100,0.00,,,0.70,0.000000,,2013-02-26 01:52:00,
2013-02-25 20:01:00,39.0,39.0,-100.00,NE,51,15.0,26.0,100,0.00,,,0.70,0.000000,,2013-02-26 02:01:00,
2013-02-25 20:32:00,38.0,38.0,-100.00,NE,48,17.0,28.0,100,0.00,,,0.70,0.000000,,2013-02-26 02:32:00,
2013-02-25 20:42:00,38.0,38.0,-100.00,NE,48,17.0,28.0,100,0.00,,,0.70,0.000000,,2013-02-26 02:42:00,
2013-02-25 20:52:00,38.0,38.0,-100.00,NE,48,17.0,28.0,100,0.00,,,0.70,0.000000,,2013-02-26 02:52:00,
2013-02-25 21:02:00,38.0,38.0,-100.00,NE,48,17.0,28.0,100,0.00,,,0.70,0.000000,,2013-02-26 03:02:00,
2013-02-25 21:32:00,38.0,38.0,-100.00,West,264,6.0,27.0,100,0.03,,,0.73,0.000000,,2013-02-26 03:32:00,
2013-02-25 21:42:00,38.0,38.0,-100.00,West,264,6.0,27.0,100,0.03,,,0.73,0.000000,,2013-02-26 03:42:00,
2013-02-25 21:52:00,38.0,38.0,-100.00,West,264,6.0,27.0,100,0.03,,,0.73,0.000000,,2013-02-26 03:52:00,
2013-02-25 22:01:00,38.0,38.0,-100.00,West,264,6.0,27.0,100,0.03,,,0.73,0.000000,,2013-02-26 04:01:00,
2013-02-25 22:32:00,37.0,37.0,-100.00,NNE,20,6.0,14.0,100,0.04,,,0.77,0.000000,,2013-02-26 04:32:00,
2013-02-25 22:42:00,37.0,37.0,-100.00,NNE,20,6.0,14.0,100,0.04,,,0.77,0.000000,,2013-02-26 04:42:00,
2013-02-25 22:52:00,37.0,37.0,-100.00,NNE,20,6.0,14.0,100,0.04,,,0.77,0.000000,,2013-02-26 04:52:00,
2013-02-25 23:01:00,37.0,37.0,-100.00,NNE,20,6.0,14.0,100,0.04,,,0.77,0.000000,,2013-02-26 05:01:00,
2013-02-25 23:32:00,36.0,36.0,-100.00,North,358,7.0,15.0,100,0.00,,,-99.99,0.000000,,2013-02-26 05:32:00,
2013-02-25 23:43:00,36.0,36.0,-100.00,North,358,7.0,15.0,100,0.00,,,-99.99,0.000000,,2013-02-26 05:43:00,
2013-02-25 23:52:00,36.0,36.0,-100.00,North,358,7.0,15.0,100,0.00,,,-99.99,0.000000,,2013-02-26 05:52:00,